Time,TemperatureF,DewpointF,PressureIn,WindDirection,WindDirectionDegrees,WindSpeedMPH,WindSpeedGustMPH,Humidity,HourlyPrecipIn,Conditions,Clouds,dailyrainin,SoftwareType,DateUTC
2013-07-01 00:09:00,60.4,55.2,30.02,NNE,19,4.0,4.0,83,0.00,,,0.00,Wunderground v.1.15,2013-07-01 05:09:00,
2013-07-01 00:14:00,60.4,55.2,30.01,NNE,14,3.0,3.0,83,0.00,,,0.00,Wunderground v.1.15,2013-07-01 05:14:00,
2013-07-01 00:20:00,60.4,54.9,30.02,NNE,16,5.0,5.0,82,0.00,,,0.00,Wunderground v.1.15,2013-07-01 05:20:00,
2013-07-01 00:25:00,60.4,54.9,30.02,NNE,15,3.0,5.0,82,0.00,,,0.00,Wunderground v.1.15,2013-07-01 05:25:00,
2013-07-01 00:30:00,60.0,54.5,30.01,NNE,19,4.0,5.0,82,0.00,,,0.00,Wunderground v.1.15,2013-07-01 05:30:00,
2013-07-01 00:36:00,59.8,54.6,30.01,NNE,26,3.0,5.0,83,0.00,,,0.00,Wunderground v.1.15,2013-07-01 05:36:00,
2013-07-01 00:42:00,59.8,54.6,30.01,NE,34,3.0,3.0,83,0.00,,,0.00,Wunderground v.1.15,2013-07-01 05:42:00,
2013-07-01 00:48:00,59.7,54.5,30.02,NNE,24,1.0,3.0,83,0.00,,,0.00,Wunderground v.1.15,2013-07-01 05:48:00,
2013-07-01 00:54:00,59.5,54.3,30.02,NE,40,2.0,2.0,83,0.00,,,0.00,Wunderground v.1.15,2013-07-01 05:54:00,
2013-07-01 01:00:00,59.5,54.3,30.02,NE,34,1.0,2.0,83,0.00,,,0.00,Wunderground v.1.15,2013-07-01 06:00:00,
2013-07-01 01:06:00,59.5,54.3,30.02,NNE,23,3.0,3.0,83,0.00,,,0.00,Wunderground v.1.15,2013-07-01 06:06:00,
2013-07-01 01:12:00,59.2,54.0,30.02,NNE,14,5.0,5.0,83,0.00,,,0.00,Wunderground v.1.15,2013-07-01 06:12:00,
2013-07-01 01:18:00,59.0,54.2,30.02,NNE,13,3.0,5.0,84,0.00,,,0.00,Wunderground v.1.15,2013-07-01 06:18:00,
2013-07-01 01:24:00,58.8,54.0,30.02,NNE,19,4.0,4.0,84,0.00,,,0.00,Wunderground v.1.15,2013-07-01 06:24:00,
2013-07-01 01:30:00,58.8,54.0,30.02,North,360,4.0,5.0,84,0.00,,,0.00,Wunderground v.1.15,2013-07-01 06:30:00,
2013-07-01 01:35:00,59.0,54.2,30.02,NNE,29,4.0,5.0,84,0.00,,,0.00,Wunderground v.1.15,2013-07-01 06:35:00,
2013-07-01 01:42:00,59.2,54.4,30.02,NNE,19,4.0,4.0,84,0.00,,,0.00,Wunderground v.1.15,2013-07-01 06:42:00,
2013-07-01 01:48:00,59.3,54.1,30.02,NNE,28,2.0,6.0,83,0.00,,,0.00,Wunderground v.1.15,2013-07-01 06:48:00,
2013-07-01 01:54:00,59.3,54.1,30.02,NNE,20,2.0,3.0,83,0.00,,,0.00,Wunderground v.1.15,2013-07-01 06:54:00,
2013-07-01 02:00:00,59.1,54.3,30.02,NNE,20,2.0,2.0,84,0.00,,,0.00,Wunderground v.1.15,2013-07-01 07:00:00,
2013-07-01 02:05:00,59.0,54.2,30.02,NNE,15,4.0,5.0,84,0.00,,,0.00,Wunderground v.1.15,2013-07-01 07:05:00,
2013-07-01 02:10:00,58.9,54.1,30.02,ENE,60,2.0,4.0,84,0.00,,,0.00,Wunderground v.1.15,2013-07-01 07:10:00,
2013-07-01 02:15:00,58.9,54.1,30.02,NNE,23,2.0,3.0,84,0.00,,,0.00,Wunderground v.1.15,2013-07-01 07:15:00,
2013-07-01 02:20:00,58.8,54.3,30.02,NNE,27,2.0,3.0,85,0.00,,,0.00,Wunderground v.1.15,2013-07-01 07:20:00,
2013-07-01 02:25:00,58.7,54.2,30.02,NNE,15,2.0,3.0,85,0.00,,,0.00,Wunderground v.1.15,2013-07-01 07:25:00,
2013-07-01 02:30:00,58.7,54.2,30.02,NNE,20,1.0,5.0,85,0.00,,,0.00,Wunderground v.1.15,2013-07-01 07:30:00,
2013-07-01 02:35:00,58.6,54.1,30.02,NNE,18,1.0,2.0,85,0.00,,,0.00,Wunderground v.1.15,2013-07-01 07:35:00,
2013-07-01 02:40:00,58.6,54.1,30.02,North,11,5.0,5.0,85,0.00,,,0.00,Wunderground v.1.15,2013-07-01 07:40:00,
2013-07-01 02:45:00,58.7,54.2,30.02,NNE,28,2.0,5.0,85,0.00,,,0.00,Wunderground v.1.15,2013-07-01 07:45:00,
2013-07-01 02:50:00,58.8,54.3,30.02,NNE,13,3.0,5.0,85,0.00,,,0.00,Wunderground v.1.15,2013-07-01 07:50:00,
2013-07-01 02:55:00,58.7,54.2,30.02,NE,34,3.0,3.0,85,0.00,,,0.00,Wunderground v.1.15,2013-07-01 07:55:00,
2013-07-01 03:00:00,58.7,54.2,30.03,NNE,17,4.0,5.0,85,0.00,,,0.00,Wunderground v.1.15,2013-07-01 08:00:00,
2013-07-01 03:05:00,58.7,54.2,30.03,NNE,16,4.0,6.0,85,0.00,,,0.00,Wunderground v.1.15,2013-07-01 08:05:00,
2013-07-01 03:10:00,58.6,54.1,30.03,NNE,18,5.0,6.0,85,0.00,,,0.00,Wunderground v.1.15,2013-07-01 08:10:00,
2013-07-01 03:15:00,58.6,54.1,30.03,North,355,4.0,5.0,85,0.00,,,0.00,Wunderground v.1.15,2013-07-01 08:15:00,
2013-07-01 03:20:00,58.5,54.0,30.03,NNE,19,3.0,5.0,85,0.00,,,0.00,Wunderground v.1.15,2013-07-01 08:20:00,
2013-07-01 03:25:00,58.5,54.0,30.03,NNE,24,6.0,6.0,85,0.00,,,0.00,Wunderground v.1.15,2013-07-01 08:25:00,
2013-07-01 03:30:00,58.4,53.9,30.03,North,9,6.0,6.0,85,0.00,,,0.00,Wunderground v.1.15,2013-07-01 08:30:00,
2013-07-01 03:35:00,58.4,53.9,30.03,NNE,30,3.0,6.0,85,0.00,,,0.00,Wunderground v.1.15,2013-07-01 08:35:00,
2013-07-01 03:40:00,58.3,53.8,30.03,NNE,22,3.0,6.0,85,0.00,,,0.00,Wunderground v.1.15,2013-07-01 08:40:00,
2013-07-01 03:45:00,58.2,53.7,30.03,NNE,33,2.0,4.0,85,0.00,,,0.00,Wunderground v.1.15,2013-07-01 08:45:00,
2013-07-01 03:50:00,58.0,53.8,30.03,NNE,17,4.0,4.0,86,0.00,,,0.00,Wunderground v.1.15,2013-07-01 08:50:00,
2013-07-01 03:55:00,57.9,53.7,30.03,North,5,3.0,3.0,86,0.00,,,0.00,Wunderground v.1.15,2013-07-01 08:55:00,
2013-07-01 04:00:00,57.8,53.6,30.03,NNE,29,2.0,2.0,86,0.00,,,0.00,Wunderground v.1.15,2013-07-01 09:00:00,
2013-07-01 04:05:00,57.7,53.9,30.03,NNE,18,2.0,4.0,87,0.00,,,0.00,Wunderground v.1.15,2013-07-01 09:05:00,
2013-07-01 04:10:00,57.7,53.9,30.03,NNE,21,2.0,4.0,87,0.00,,,0.00,Wunderground v.1.15,2013-07-01 09:10:00,
2013-07-01 04:15:00,57.6,53.8,30.03,NNE,17,2.0,3.0,87,0.00,,,0.00,Wunderground v.1.15,2013-07-01 09:15:00,
2013-07-01 04:20:00,57.5,53.7,30.03,NNE,15,2.0,4.0,87,0.00,,,0.00,Wunderground v.1.15,2013-07-01 09:20:00,
2013-07-01 04:25:00,57.5,53.7,30.03,North,11,2.0,3.0,87,0.00,,,0.00,Wunderground v.1.15,2013-07-01 09:25:00,
2013-07-01 04:31:00,57.5,53.7,30.03,NE,40,1.0,4.0,87,0.00,,,0.00,Wunderground v.1.15,2013-07-01 09:31:00,
2013-07-01 04:36:00,57.5,53.7,30.03,NNE,15,2.0,4.0,87,0.00,,,0.00,Wunderground v.1.15,2013-07-01 09:36:00,
2013-07-01 04:42:00,57.5,53.7,30.03,NNE,17,4.0,4.0,87,0.00,,,0.00,Wunderground v.1.15,2013-07-01 09:42:00,
2013-07-01 04:47:00,57.5,53.7,30.03,NNE,25,2.0,5.0,87,0.00,,,0.00,Wunderground v.1.15,2013-07-01 09:47:00,
2013-07-01 04:52:00,57.3,53.5,30.03,NNE,26,3.0,5.0,87,0.00,,,0.00,Wunderground v.1.15,2013-07-01 09:52:00,
2013-07-01 04:57:00,57.4,53.9,30.03,NNE,13,4.0,6.0,88,0.00,,,0.00,Wunderground v.1.15,2013-07-01 09:57:00,
2013-07-01 05:02:00,57.3,53.8,30.03,NNE,31,4.0,4.0,88,0.00,,,0.00,Wunderground v.1.15,2013-07-01 10:02:00,
2013-07-01 05:07:00,57.2,53.7,30.03,NNE,26,1.0,5.0,88,0.00,,,0.00,Wunderground v.1.15,2013-07-01 10:07:00,
2013-07-01 05:12:00,57.1,53.6,30.04,NNE,30,2.0,2.0,88,0.00,,,0.00,Wunderground v.1.15,2013-07-01 10:12:00,
2013-07-01 05:17:00,57.0,53.5,30.04,NNE,30,3.0,5.0,88,0.00,,,0.00,Wunderground v.1.15,2013-07-01 10:17:00,
2013-07-01 05:22:00,57.1,53.6,30.04,NNE,15,5.0,5.0,88,0.00,,,0.00,Wunderground v.1.15,2013-07-01 10:22:00,
2013-07-01 05:27:00,57.1,53.6,30.04,NNE,15,4.0,5.0,88,0.00,,,0.00,Wunderground v.1.15,2013-07-01 10:27:00,
2013-07-01 05:32:00,57.0,53.5,30.04,NNE,15,3.0,5.0,88,0.00,,,0.00,Wunderground v.1.15,2013-07-01 10:32:00,
2013-07-01 05:37:00,56.9,53.7,30.04,NNE,17,4.0,5.0,89,0.00,,,0.00,Wunderground v.1.15,2013-07-01 10:37:00,
2013-07-01 05:42:00,56.7,53.5,30.04,North,11,3.0,4.0,89,0.00,,,0.00,Wunderground v.1.15,2013-07-01 10:42:00,
2013-07-01 05:47:00,56.6,53.4,30.04,NNE,13,4.0,5.0,89,0.00,,,0.00,Wunderground v.1.15,2013-07-01 10:47:00,
2013-07-01 05:52:00,56.5,53.6,30.04,NNE,15,4.0,5.0,90,0.00,,,0.00,Wunderground v.1.15,2013-07-01 10:52:00,
2013-07-01 05:57:00,56.6,53.7,30.04,NNE,15,3.0,5.0,90,0.00,,,0.00,Wunderground v.1.15,2013-07-01 10:57:00,
2013-07-01 06:02:00,56.7,53.8,30.04,NNE,29,4.0,4.0,90,0.00,,,0.00,Wunderground v.1.15,2013-07-01 11:02:00,
2013-07-01 06:08:00,56.7,53.8,30.04,NNE,13,3.0,5.0,90,0.00,,,0.00,Wunderground v.1.15,2013-07-01 11:08:00,
2013-07-01 06:13:00,56.8,54.2,30.05,NNE,25,4.0,5.0,91,0.00,,,0.00,Wunderground v.1.15,2013-07-01 11:13:00,
2013-07-01 06:18:00,57.1,54.5,30.05,NNE,17,4.0,5.0,91,0.00,,,0.00,Wunderground v.1.15,2013-07-01 11:18:00,
2013-07-01 06:23:00,57.3,54.7,30.05,NNE,23,3.0,4.0,91,0.00,,,0.00,Wunderground v.1.15,2013-07-01 11:23:00,
2013-07-01 06:28:00,57.7,54.8,30.05,NE,44,4.0,6.0,90,0.00,,,0.00,Wunderground v.1.15,2013-07-01 11:28:00,
2013-07-01 06:33:00,58.0,55.1,30.05,NNE,28,3.0,4.0,90,0.00,,,0.00,Wunderground v.1.15,2013-07-01 11:33:00,
2013-07-01 06:38:00,58.2,55.3,30.05,NNE,17,3.0,5.0,90,0.00,,,0.00,Wunderground v.1.15,2013-07-01 11:38:00,
2013-07-01 06:43:00,58.5,55.6,30.05,NNE,22,3.0,4.0,90,0.00,,,0.00,Wunderground v.1.15,2013-07-01 11:43:00,
2013-07-01 06:48:00,58.8,55.6,30.05,NNE,12,4.0,6.0,89,0.00,,,0.00,Wunderground v.1.15,2013-07-01 11:48:00,
2013-07-01 06:53:00,59.2,56.0,30.05,NNE,26,6.0,6.0,89,0.00,,,0.00,Wunderground v.1.15,2013-07-01 11:53:00,
2013-07-01 06:58:00,59.6,56.4,30.05,NNE,32,5.0,7.0,89,0.00,,,0.00,Wunderground v.1.15,2013-07-01 11:58:00,
2013-07-01 07:03:00,60.0,56.4,30.05,North,5,4.0,5.0,88,0.00,,,0.00,Wunderground v.1.15,2013-07-01 12:03:00,
2013-07-01 07:08:00,60.4,56.8,30.06,North,5,5.0,6.0,88,0.00,,,0.00,Wunderground v.1.15,2013-07-01 12:08:00,
2013-07-01 07:13:00,60.8,57.2,30.06,NNE,15,5.0,5.0,88,0.00,,,0.00,Wunderground v.1.15,2013-07-01 12:13:00,
2013-07-01 07:18:00,61.2,57.3,30.06,NNE,26,3.0,5.0,87,0.00,,,0.00,Wunderground v.1.15,2013-07-01 12:18:00,
2013-07-01 07:23:00,61.7,57.5,30.06,North,5,4.0,5.0,86,0.00,,,0.00,Wunderground v.1.15,2013-07-01 12:23:00,
2013-07-01 07:28:00,62.2,58.0,30.06,North,5,2.0,5.0,86,0.00,,,0.00,Wunderground v.1.15,2013-07-01 12:28:00,
2013-07-01 07:33:00,62.6,58.0,30.06,NE,34,4.0,5.0,85,0.00,,,0.00,Wunderground v.1.15,2013-07-01 12:33:00,
2013-07-01 07:39:00,63.2,58.3,30.06,NNE,23,4.0,5.0,84,0.00,,,0.00,Wunderground v.1.15,2013-07-01 12:39:00,
2013-07-01 07:44:00,63.7,58.4,30.06,North,9,4.0,5.0,83,0.00,,,0.00,Wunderground v.1.15,2013-07-01 12:44:00,
2013-07-01 07:49:00,64.2,58.6,30.07,NNE,13,5.0,6.0,82,0.00,,,0.00,Wunderground v.1.15,2013-07-01 12:49:00,
2013-07-01 07:54:00,64.6,59.0,30.07,North,9,5.0,6.0,82,0.00,,,0.00,Wunderground v.1.15,2013-07-01 12:54:00,
2013-07-01 07:59:00,65.0,59.0,30.07,North,5,4.0,6.0,81,0.00,,,0.00,Wunderground v.1.15,2013-07-01 12:59:00,
2013-07-01 08:04:00,65.5,59.2,30.07,North,9,4.0,5.0,80,0.00,,,0.00,Wunderground v.1.15,2013-07-01 13:04:00,
2013-07-01 08:09:00,66.1,59.7,30.07,NNE,26,2.0,3.0,80,0.00,,,0.00,Wunderground v.1.15,2013-07-01 13:09:00,
2013-07-01 08:14:00,66.8,60.8,30.07,North,5,2.0,2.0,81,0.00,,,0.00,Wunderground v.1.15,2013-07-01 13:14:00,
2013-07-01 08:19:00,67.5,60.4,30.07,North,351,3.0,5.0,78,0.00,,,0.00,Wunderground v.1.15,2013-07-01 13:19:00,
2013-07-01 08:24:00,68.0,60.2,30.07,NNE,18,1.0,4.0,76,0.00,,,0.00,Wunderground v.1.15,2013-07-01 13:24:00,
2013-07-01 08:29:00,68.5,60.6,30.07,North,5,6.0,6.0,76,0.00,,,0.00,Wunderground v.1.15,2013-07-01 13:29:00,
2013-07-01 08:34:00,68.6,60.4,30.08,NNE,15,5.0,7.0,75,0.00,,,0.00,Wunderground v.1.15,2013-07-01 13:34:00,
2013-07-01 08:39:00,68.8,60.2,30.08,North,11,4.0,7.0,74,0.00,,,0.00,Wunderground v.1.15,2013-07-01 13:39:00,
2013-07-01 08:44:00,69.3,60.7,30.08,North,11,3.0,6.0,74,0.00,,,0.00,Wunderground v.1.15,2013-07-01 13:44:00,
2013-07-01 08:49:00,69.8,61.1,30.08,NNE,26,3.0,7.0,74,0.00,,,0.00,Wunderground v.1.15,2013-07-01 13:49:00,
2013-07-01 08:54:00,70.4,60.9,30.08,NE,56,1.0,4.0,72,0.00,,,0.00,Wunderground v.1.15,2013-07-01 13:54:00,
2013-07-01 08:59:00,71.1,60.8,30.08,NNE,31,2.0,7.0,70,0.00,,,0.00,Wunderground v.1.15,2013-07-01 13:59:00,
2013-07-01 09:04:00,71.7,60.6,30.08,NNE,32,5.0,5.0,68,0.00,,,0.00,Wunderground v.1.15,2013-07-01 14:04:00,
2013-07-01 09:09:00,72.2,60.6,30.08,NNE,32,2.0,3.0,67,0.00,,,0.00,Wunderground v.1.15,2013-07-01 14:09:00,
2013-07-01 09:14:00,72.6,60.2,30.08,NNE,23,2.0,4.0,65,0.00,,,0.00,Wunderground v.1.15,2013-07-01 14:14:00,
2013-07-01 09:19:00,73.1,60.6,30.08,NE,49,1.0,4.0,65,0.00,,,0.00,Wunderground v.1.15,2013-07-01 14:19:00,
2013-07-01 09:24:00,73.4,58.2,30.08,NE,45,2.0,3.0,59,0.00,,,0.00,Wunderground v.1.15,2013-07-01 14:24:00,
2013-07-01 09:29:00,73.6,59.3,30.08,NNE,31,1.0,8.0,61,0.00,,,0.00,Wunderground v.1.15,2013-07-01 14:29:00,
2013-07-01 09:34:00,73.7,58.0,30.08,ENE,61,1.0,4.0,58,0.00,,,0.00,Wunderground v.1.15,2013-07-01 14:34:00,
2013-07-01 09:39:00,73.9,55.7,30.08,ENE,71,2.0,4.0,53,0.00,,,0.00,Wunderground v.1.15,2013-07-01 14:39:00,
2013-07-01 09:44:00,74.2,57.5,30.08,ENE,59,2.0,2.0,56,0.00,,,0.00,Wunderground v.1.15,2013-07-01 14:44:00,
2013-07-01 09:49:00,74.2,56.5,30.08,ENE,63,3.0,5.0,54,0.00,,,0.00,Wunderground v.1.15,2013-07-01 14:49:00,
2013-07-01 09:54:00,74.2,56.5,30.08,ENE,66,3.0,4.0,54,0.00,,,0.00,Wunderground v.1.15,2013-07-01 14:54:00,
2013-07-01 09:59:00,74.1,56.9,30.08,NE,55,3.0,4.0,55,0.00,,,0.00,Wunderground v.1.15,2013-07-01 14:59:00,
2013-07-01 10:04:00,74.1,57.9,30.08,NNE,32,1.0,3.0,57,0.00,,,0.00,Wunderground v.1.15,2013-07-01 15:04:00,
2013-07-01 10:09:00,74.2,56.0,30.08,ENE,74,2.0,3.0,53,0.00,,,0.00,Wunderground v.1.15,2013-07-01 15:09:00,
2013-07-01 10:14:00,74.2,56.0,30.08,East,82,4.0,5.0,53,0.00,,,0.00,Wunderground v.1.15,2013-07-01 15:14:00,
2013-07-01 10:19:00,74.3,55.0,30.08,ENE,71,2.0,5.0,51,0.00,,,0.00,Wunderground v.1.15,2013-07-01 15:19:00,
2013-07-01 10:24:00,74.3,56.1,30.08,NNE,26,4.0,8.0,53,0.00,,,0.00,Wunderground v.1.15,2013-07-01 15:24:00,
2013-07-01 10:29:00,74.1,56.4,30.08,NNE,27,1.0,9.0,54,0.00,,,0.00,Wunderground v.1.15,2013-07-01 15:29:00,
2013-07-01 10:34:00,74.2,56.0,30.08,North,355,2.0,4.0,53,0.00,,,0.00,Wunderground v.1.15,2013-07-01 15:34:00,
2013-07-01 10:39:00,74.4,55.6,30.08,East,84,3.0,5.0,52,0.00,,,0.00,Wunderground v.1.15,2013-07-01 15:39:00,
2013-07-01 10:44:00,74.6,55.8,30.08,ENE,61,2.0,5.0,52,0.00,,,0.00,Wunderground v.1.15,2013-07-01 15:44:00,
2013-07-01 10:49:00,74.8,57.5,30.08,ENE,67,2.0,5.0,55,0.00,,,0.00,Wunderground v.1.15,2013-07-01 15:49:00,
2013-07-01 10:54:00,75.1,57.8,30.08,NE,40,1.0,5.0,55,0.00,,,0.00,Wunderground v.1.15,2013-07-01 15:54:00,
2013-07-01 10:59:00,75.3,57.0,30.08,NNE,32,3.0,7.0,53,0.00,,,0.00,Wunderground v.1.15,2013-07-01 15:59:00,
2013-07-01 11:04:00,75.3,56.5,30.08,North,10,3.0,4.0,52,0.00,,,0.00,Wunderground v.1.15,2013-07-01 16:04:00,
2013-07-01 11:09:00,75.3,57.5,30.08,NE,49,3.0,3.0,54,0.00,,,0.00,Wunderground v.1.15,2013-07-01 16:09:00,
2013-07-01 11:14:00,75.6,57.3,30.08,NNE,21,3.0,5.0,53,0.00,,,0.00,Wunderground v.1.15,2013-07-01 16:14:00,
2013-07-01 11:19:00,75.7,56.8,30.08,ENE,59,3.0,5.0,52,0.00,,,0.00,Wunderground v.1.15,2013-07-01 16:19:00,
2013-07-01 11:25:00,75.8,56.9,30.08,NE,55,5.0,5.0,52,0.00,,,0.00,Wunderground v.1.15,2013-07-01 16:25:00,
2013-07-01 11:30:00,76.0,58.2,30.08,NE,45,2.0,7.0,54,0.00,,,0.00,Wunderground v.1.15,2013-07-01 16:30:00,
2013-07-01 11:35:00,76.2,58.3,30.08,ENE,71,2.0,4.0,54,0.00,,,0.00,Wunderground v.1.15,2013-07-01 16:35:00,
2013-07-01 11:40:00,76.4,56.9,30.08,NE,47,4.0,7.0,51,0.00,,,0.00,Wunderground v.1.15,2013-07-01 16:40:00,
2013-07-01 11:45:00,76.5,57.0,30.08,ENE,70,6.0,6.0,51,0.00,,,0.00,Wunderground v.1.15,2013-07-01 16:45:00,
2013-07-01 11:50:00,76.6,58.7,30.08,ENE,57,2.0,10.0,54,0.00,,,0.00,Wunderground v.1.15,2013-07-01 16:50:00,
2013-07-01 11:55:00,76.8,58.4,30.07,NE,46,2.0,6.0,53,0.00,,,0.00,Wunderground v.1.15,2013-07-01 16:55:00,
2013-07-01 12:00:00,77.0,58.6,30.08,ENE,57,4.0,8.0,53,0.00,,,0.00,Wunderground v.1.15,2013-07-01 17:00:00,
2013-07-01 12:05:00,76.7,57.2,30.08,East,84,2.0,13.0,51,0.00,,,0.00,Wunderground v.1.15,2013-07-01 17:05:00,
2013-07-01 12:10:00,76.7,58.3,30.08,East,82,2.0,10.0,53,0.00,,,0.00,Wunderground v.1.15,2013-07-01 17:10:00,
2013-07-01 12:15:00,76.8,57.3,30.07,East,91,4.0,6.0,51,0.00,,,0.00,Wunderground v.1.15,2013-07-01 17:15:00,
2013-07-01 12:20:00,77.0,59.6,30.07,ENE,71,6.0,8.0,55,0.00,,,0.00,Wunderground v.1.15,2013-07-01 17:20:00,
2013-07-01 12:25:00,77.3,58.8,30.07,NE,49,2.0,4.0,53,0.00,,,0.00,Wunderground v.1.15,2013-07-01 17:25:00,
2013-07-01 12:30:00,77.4,56.7,30.07,East,84,4.0,6.0,49,0.00,,,0.00,Wunderground v.1.15,2013-07-01 17:30:00,
2013-07-01 12:35:00,77.5,57.9,30.07,ENE,63,3.0,6.0,51,0.00,,,0.00,Wunderground v.1.15,2013-07-01 17:35:00,
2013-07-01 12:40:00,77.6,58.0,30.07,East,90,4.0,11.0,51,0.00,,,0.00,Wunderground v.1.15,2013-07-01 17:40:00,
2013-07-01 12:45:00,77.8,57.7,30.07,NE,34,4.0,6.0,50,0.00,,,0.00,Wunderground v.1.15,2013-07-01 17:45:00,
2013-07-01 12:50:00,77.9,56.0,30.07,NE,45,3.0,8.0,47,0.00,,,0.00,Wunderground v.1.15,2013-07-01 17:50:00,
2013-07-01 12:55:00,77.8,56.0,30.07,East,81,2.0,6.0,47,0.00,,,0.00,Wunderground v.1.15,2013-07-01 17:55:00,
2013-07-01 13:00:00,77.7,56.4,30.07,East,82,4.0,5.0,48,0.00,,,0.00,Wunderground v.1.15,2013-07-01 18:00:00,
2013-07-01 13:05:00,77.7,58.1,30.07,NE,55,3.0,6.0,51,0.00,,,0.00,Wunderground v.1.15,2013-07-01 18:05:00,
2013-07-01 13:10:00,77.9,56.0,30.06,ENE,76,2.0,7.0,47,0.00,,,0.00,Wunderground v.1.15,2013-07-01 18:10:00,
2013-07-01 13:15:00,78.1,57.4,30.06,NE,43,4.0,5.0,49,0.00,,,0.00,Wunderground v.1.15,2013-07-01 18:15:00,
2013-07-01 13:20:00,78.2,56.3,30.06,ENE,78,3.0,7.0,47,0.00,,,0.00,Wunderground v.1.15,2013-07-01 18:20:00,
2013-07-01 13:25:00,78.2,58.0,30.06,NNE,28,3.0,5.0,50,0.00,,,0.00,Wunderground v.1.15,2013-07-01 18:25:00,
2013-07-01 13:30:00,78.0,55.5,30.06,NE,38,8.0,14.0,46,0.00,,,0.00,Wunderground v.1.15,2013-07-01 18:30:00,
2013-07-01 13:35:00,77.8,55.4,30.06,East,80,5.0,6.0,46,0.00,,,0.00,Wunderground v.1.15,2013-07-01 18:35:00,
2013-07-01 13:40:00,77.8,56.5,30.06,ENE,60,3.0,8.0,48,0.00,,,0.00,Wunderground v.1.15,2013-07-01 18:40:00,
2013-07-01 13:45:00,78.0,57.9,30.06,East,83,2.0,13.0,50,0.00,,,0.00,Wunderground v.1.15,2013-07-01 18:45:00,
2013-07-01 13:50:00,78.3,58.1,30.06,East,81,2.0,13.0,50,0.00,,,0.00,Wunderground v.1.15,2013-07-01 18:50:00,
2013-07-01 13:55:00,78.6,56.1,30.06,East,95,4.0,7.0,46,0.00,,,0.00,Wunderground v.1.15,2013-07-01 18:55:00,
2013-07-01 14:00:00,78.7,59.0,30.06,ENE,60,4.0,5.0,51,0.00,,,0.00,Wunderground v.1.15,2013-07-01 19:00:00,
2013-07-01 14:05:00,78.8,56.3,30.06,ENE,64,5.0,7.0,46,0.00,,,0.00,Wunderground v.1.15,2013-07-01 19:05:00,
2013-07-01 14:10:00,78.6,56.1,30.06,ENE,77,3.0,5.0,46,0.00,,,0.00,Wunderground v.1.15,2013-07-01 19:10:00,
2013-07-01 14:15:00,78.8,58.0,30.06,East,91,5.0,5.0,49,0.00,,,0.00,Wunderground v.1.15,2013-07-01 19:15:00,
2013-07-01 14:20:00,78.9,58.1,30.06,East,81,3.0,9.0,49,0.00,,,0.00,Wunderground v.1.15,2013-07-01 19:20:00,
2013-07-01 14:25:00,78.9,55.8,30.06,NNE,17,3.0,7.0,45,0.00,,,0.00,Wunderground v.1.15,2013-07-01 19:25:00,
2013-07-01 14:30:00,79.0,58.8,30.06,NE,42,4.0,7.0,50,0.00,,,0.00,Wunderground v.1.15,2013-07-01 19:30:00,
2013-07-01 14:35:00,79.0,58.2,30.06,ENE,57,1.0,8.0,49,0.00,,,0.00,Wunderground v.1.15,2013-07-01 19:35:00,
2013-07-01 14:40:00,79.2,57.2,30.06,NE,36,3.0,8.0,47,0.00,,,0.00,Wunderground v.1.15,2013-07-01 19:40:00,
2013-07-01 14:45:00,79.3,57.3,30.06,NE,55,2.0,5.0,47,0.00,,,0.00,Wunderground v.1.15,2013-07-01 19:45:00,
2013-07-01 14:50:00,79.2,58.4,30.06,East,88,4.0,5.0,49,0.00,,,0.00,Wunderground v.1.15,2013-07-01 19:50:00,
2013-07-01 14:55:00,79.0,57.0,30.06,ENE,67,2.0,8.0,47,0.00,,,0.00,Wunderground v.1.15,2013-07-01 19:55:00,
2013-07-01 15:00:00,78.8,58.0,30.06,NE,44,7.0,8.0,49,0.00,,,0.00,Wunderground v.1.15,2013-07-01 20:00:00,
2013-07-01 15:05:00,78.4,55.9,30.06,East,83,1.0,6.0,46,0.00,,,0.00,Wunderground v.1.15,2013-07-01 20:05:00,
2013-07-01 15:10:00,78.3,58.7,30.06,ENE,66,5.0,5.0,51,0.00,,,0.00,Wunderground v.1.15,2013-07-01 20:10:00,
2013-07-01 15:16:00,78.3,58.1,30.06,ENE,67,2.0,6.0,50,0.00,,,0.00,Wunderground v.1.15,2013-07-01 20:16:00,
2013-07-01 15:22:00,78.4,57.7,30.06,ENE,74,5.0,5.0,49,0.00,,,0.00,Wunderground v.1.15,2013-07-01 20:22:00,
2013-07-01 15:27:00,78.5,59.4,30.06,East,92,4.0,7.0,52,0.00,,,0.00,Wunderground v.1.15,2013-07-01 20:27:00,
2013-07-01 15:33:00,78.8,56.3,30.06,East,93,2.0,5.0,46,0.00,,,0.00,Wunderground v.1.15,2013-07-01 20:33:00,
2013-07-01 15:38:00,78.7,55.0,30.06,ENE,61,2.0,6.0,44,0.00,,,0.00,Wunderground v.1.15,2013-07-01 20:38:00,
2013-07-01 15:43:00,78.8,57.4,30.05,ENE,66,3.0,3.0,48,0.00,,,0.00,Wunderground v.1.15,2013-07-01 20:43:00,
2013-07-01 15:48:00,78.9,57.0,30.05,East,98,2.0,6.0,47,0.00,,,0.00,Wunderground v.1.15,2013-07-01 20:48:00,
2013-07-01 15:53:00,79.1,56.5,30.05,NE,42,3.0,4.0,46,0.00,,,0.00,Wunderground v.1.15,2013-07-01 20:53:00,
2013-07-01 15:58:00,79.1,55.9,30.05,NE,42,5.0,5.0,45,0.00,,,0.00,Wunderground v.1.15,2013-07-01 20:58:00,
2013-07-01 16:03:00,79.1,57.1,30.05,East,85,3.0,4.0,47,0.00,,,0.00,Wunderground v.1.15,2013-07-01 21:03:00,
2013-07-01 16:08:00,79.3,58.5,30.05,ENE,73,2.0,5.0,49,0.00,,,0.00,Wunderground v.1.15,2013-07-01 21:08:00,
2013-07-01 16:13:00,79.4,57.4,30.05,East,101,1.0,4.0,47,0.00,,,0.00,Wunderground v.1.15,2013-07-01 21:13:00,
2013-07-01 16:18:00,79.4,58.0,30.05,ENE,59,2.0,8.0,48,0.00,,,0.00,Wunderground v.1.15,2013-07-01 21:18:00,
2013-07-01 16:23:00,79.4,57.4,30.05,ENE,64,3.0,3.0,47,0.00,,,0.00,Wunderground v.1.15,2013-07-01 21:23:00,
2013-07-01 16:28:00,79.4,58.6,30.05,ENE,69,2.0,5.0,49,0.00,,,0.00,Wunderground v.1.15,2013-07-01 21:28:00,
2013-07-01 16:33:00,79.4,58.6,30.05,ENE,75,1.0,4.0,49,0.00,,,0.00,Wunderground v.1.15,2013-07-01 21:33:00,
2013-07-01 16:38:00,79.3,57.9,30.05,NE,37,6.0,7.0,48,0.00,,,0.00,Wunderground v.1.15,2013-07-01 21:38:00,
2013-07-01 16:43:00,79.2,57.2,30.05,East,95,4.0,4.0,47,0.00,,,0.00,Wunderground v.1.15,2013-07-01 21:43:00,
2013-07-01 16:48:00,79.0,56.5,30.05,East,90,2.0,8.0,46,0.00,,,0.00,Wunderground v.1.15,2013-07-01 21:48:00,
2013-07-01 16:53:00,78.4,55.9,30.05,ENE,69,6.0,6.0,46,0.00,,,0.00,Wunderground v.1.15,2013-07-01 21:53:00,
2013-07-01 16:58:00,78.4,57.1,30.05,NE,34,5.0,7.0,48,0.00,,,0.00,Wunderground v.1.15,2013-07-01 21:58:00,
2013-07-01 17:03:00,78.3,57.0,30.05,ENE,72,3.0,4.0,48,0.00,,,0.00,Wunderground v.1.15,2013-07-01 22:03:00,
2013-07-01 17:08:00,78.0,56.1,30.05,East,80,6.0,7.0,47,0.00,,,0.00,Wunderground v.1.15,2013-07-01 22:08:00,
2013-07-01 17:13:00,77.8,56.5,30.05,East,85,2.0,4.0,48,0.00,,,0.00,Wunderground v.1.15,2013-07-01 22:13:00,
2013-07-01 17:18:00,78.2,56.3,30.05,ENE,68,3.0,8.0,47,0.00,,,0.00,Wunderground v.1.15,2013-07-01 22:18:00,
2013-07-01 17:23:00,77.8,55.4,30.05,East,81,2.0,5.0,46,0.00,,,0.00,Wunderground v.1.15,2013-07-01 22:23:00,
2013-07-01 17:28:00,77.6,56.9,30.05,ENE,69,2.0,7.0,49,0.00,,,0.00,Wunderground v.1.15,2013-07-01 22:28:00,
2013-07-01 17:33:00,77.8,56.5,30.05,ENE,69,2.0,5.0,48,0.00,,,0.00,Wunderground v.1.15,2013-07-01 22:33:00,
2013-07-01 17:38:00,77.4,56.2,30.05,East,80,2.0,7.0,48,0.00,,,0.00,Wunderground v.1.15,2013-07-01 22:38:00,
2013-07-01 17:43:00,77.5,56.3,30.05,NE,49,5.0,6.0,48,0.00,,,0.00,Wunderground v.1.15,2013-07-01 22:43:00,
2013-07-01 17:48:00,77.7,57.0,30.05,ENE,57,2.0,6.0,49,0.00,,,0.00,Wunderground v.1.15,2013-07-01 22:48:00,
2013-07-01 17:53:00,77.9,56.0,30.05,ENE,60,2.0,4.0,47,0.00,,,0.00,Wunderground v.1.15,2013-07-01 22:53:00,
2013-07-01 17:58:00,78.1,57.4,30.05,ENE,61,1.0,5.0,49,0.00,,,0.00,Wunderground v.1.15,2013-07-01 22:58:00,
2013-07-01 18:03:00,78.2,56.3,30.05,ENE,78,2.0,3.0,47,0.00,,,0.00,Wunderground v.1.15,2013-07-01 23:03:00,
2013-07-01 18:08:00,78.3,58.1,30.05,ESE,103,5.0,5.0,50,0.00,,,0.00,Wunderground v.1.15,2013-07-01 23:08:00,
2013-07-01 18:13:00,78.5,57.2,30.05,NE,35,3.0,3.0,48,0.00,,,0.00,Wunderground v.1.15,2013-07-01 23:13:00,
2013-07-01 18:18:00,78.3,55.2,30.05,ENE,61,5.0,7.0,45,0.00,,,0.00,Wunderground v.1.15,2013-07-01 23:18:00,
2013-07-01 18:23:00,78.1,55.6,30.05,ENE,75,4.0,5.0,46,0.00,,,0.00,Wunderground v.1.15,2013-07-01 23:23:00,
2013-07-01 18:28:00,77.9,56.6,30.05,ENE,78,2.0,8.0,48,0.00,,,0.00,Wunderground v.1.15,2013-07-01 23:28:00,
2013-07-01 18:33:00,77.9,56.6,30.05,ESE,102,4.0,5.0,48,0.00,,,0.00,Wunderground v.1.15,2013-07-01 23:33:00,
2013-07-01 18:38:00,77.9,56.0,30.05,East,94,1.0,5.0,47,0.00,,,0.00,Wunderground v.1.15,2013-07-01 23:38:00,
2013-07-01 18:43:00,77.8,57.1,30.05,East,86,3.0,4.0,49,0.00,,,0.00,Wunderground v.1.15,2013-07-01 23:43:00,
2013-07-01 18:48:00,77.6,55.8,30.05,ENE,71,0.0,7.0,47,0.00,,,0.00,Wunderground v.1.15,2013-07-01 23:48:00,
2013-07-01 18:53:00,77.6,56.4,30.05,ENE,66,1.0,4.0,48,0.00,,,0.00,Wunderground v.1.15,2013-07-01 23:53:00,
2013-07-01 18:58:00,77.4,55.6,30.05,ENE,71,2.0,4.0,47,0.00,,,0.00,Wunderground v.1.15,2013-07-01 23:58:00,
2013-07-01 19:03:00,77.3,56.1,30.05,ENE,63,2.0,3.0,48,0.00,,,0.00,Wunderground v.1.15,2013-07-02 00:03:00,
2013-07-01 19:08:00,77.1,56.5,30.04,ENE,69,2.0,3.0,49,0.00,,,0.00,Wunderground v.1.15,2013-07-02 00:08:00,
2013-07-01 19:13:00,76.8,56.2,30.05,ENE,66,2.0,2.0,49,0.00,,,0.00,Wunderground v.1.15,2013-07-02 00:13:00,
2013-07-01 19:18:00,76.6,56.6,30.05,ENE,72,3.0,4.0,50,0.00,,,0.00,Wunderground v.1.15,2013-07-02 00:18:00,
2013-07-01 19:23:00,76.4,56.4,30.04,ENE,78,3.0,3.0,50,0.00,,,0.00,Wunderground v.1.15,2013-07-02 00:23:00,
2013-07-01 19:28:00,76.2,56.7,30.05,ENE,68,2.0,4.0,51,0.00,,,0.00,Wunderground v.1.15,2013-07-02 00:28:00,
2013-07-01 19:33:00,76.0,56.6,30.05,ENE,71,1.0,2.0,51,0.00,,,0.00,Wunderground v.1.15,2013-07-02 00:33:00,
2013-07-01 19:38:00,75.8,56.9,30.05,East,81,3.0,4.0,52,0.00,,,0.00,Wunderground v.1.15,2013-07-02 00:38:00,
2013-07-01 19:43:00,75.5,56.1,30.05,ENE,61,1.0,3.0,51,0.00,,,0.00,Wunderground v.1.15,2013-07-02 00:43:00,
2013-07-01 19:48:00,75.3,57.0,30.05,NE,40,0.0,3.0,53,0.00,,,0.00,Wunderground v.1.15,2013-07-02 00:48:00,
2013-07-01 19:53:00,75.0,57.2,30.05,NE,45,2.0,2.0,54,0.00,,,0.00,Wunderground v.1.15,2013-07-02 00:53:00,
2013-07-01 19:58:00,74.6,57.4,30.05,NE,40,1.0,3.0,55,0.00,,,0.00,Wunderground v.1.15,2013-07-02 00:58:00,
2013-07-01 20:04:00,74.2,57.5,30.05,ENE,64,2.0,3.0,56,0.00,,,0.00,Wunderground v.1.15,2013-07-02 01:04:00,
2013-07-01 20:09:00,73.7,57.5,30.05,NE,50,0.0,1.0,57,0.00,,,0.00,Wunderground v.1.15,2013-07-02 01:09:00,
2013-07-01 20:14:00,73.2,57.5,30.04,NE,48,1.0,2.0,58,0.00,,,0.00,Wunderground v.1.15,2013-07-02 01:14:00,
2013-07-01 20:19:00,72.7,57.5,30.04,NE,49,1.0,2.0,59,0.00,,,0.00,Wunderground v.1.15,2013-07-02 01:19:00,
2013-07-01 20:24:00,72.2,57.5,30.04,NNE,33,1.0,2.0,60,0.00,,,0.00,Wunderground v.1.15,2013-07-02 01:24:00,
2013-07-01 20:29:00,71.7,58.0,30.04,NE,36,1.0,2.0,62,0.00,,,0.00,Wunderground v.1.15,2013-07-02 01:29:00,
2013-07-01 20:34:00,71.2,57.5,30.04,ENE,57,1.0,1.0,62,0.00,,,0.00,Wunderground v.1.15,2013-07-02 01:34:00,
2013-07-01 20:39:00,70.7,57.5,30.04,NE,55,2.0,2.0,63,0.00,,,0.00,Wunderground v.1.15,2013-07-02 01:39:00,
2013-07-01 20:44:00,70.3,57.1,30.04,ENE,64,1.0,2.0,63,0.00,,,0.00,Wunderground v.1.15,2013-07-02 01:44:00,
2013-07-01 20:49:00,70.1,56.9,30.04,ENE,64,1.0,2.0,63,0.00,,,0.00,Wunderground v.1.15,2013-07-02 01:49:00,
2013-07-01 20:54:00,69.8,57.1,30.05,NE,51,1.0,2.0,64,0.00,,,0.00,Wunderground v.1.15,2013-07-02 01:54:00,
2013-07-01 20:59:00,69.5,56.8,30.05,NE,44,1.0,2.0,64,0.00,,,0.00,Wunderground v.1.15,2013-07-02 01:59:00,
2013-07-01 21:04:00,69.2,56.9,30.05,NE,44,1.0,2.0,65,0.00,,,0.00,Wunderground v.1.15,2013-07-02 02:04:00,
2013-07-01 21:09:00,68.8,56.6,30.05,NE,44,1.0,1.0,65,0.00,,,0.00,Wunderground v.1.15,2013-07-02 02:09:00,
2013-07-01 21:14:00,68.5,57.1,30.05,NE,44,1.0,2.0,67,0.00,,,0.00,Wunderground v.1.15,2013-07-02 02:14:00,
2013-07-01 21:19:00,68.2,57.2,30.05,NE,44,1.0,2.0,68,0.00,,,0.00,Wunderground v.1.15,2013-07-02 02:19:00,
2013-07-01 21:24:00,67.9,57.4,30.05,NE,44,1.0,2.0,69,0.00,,,0.00,Wunderground v.1.15,2013-07-02 02:24:00,
2013-07-01 21:29:00,67.7,57.6,30.05,NE,44,1.0,2.0,70,0.00,,,0.00,Wunderground v.1.15,2013-07-02 02:29:00,
2013-07-01 21:34:00,67.3,57.6,30.05,NE,44,0.0,1.0,71,0.00,,,0.00,Wunderground v.1.15,2013-07-02 02:34:00,
2013-07-01 21:39:00,67.0,56.9,30.05,NE,44,1.0,2.0,70,0.00,,,0.00,Wunderground v.1.15,2013-07-02 02:39:00,
2013-07-01 21:44:00,67.0,56.9,30.05,NE,44,0.0,1.0,70,0.00,,,0.00,Wunderground v.1.15,2013-07-02 02:44:00,
2013-07-01 21:49:00,67.0,56.5,30.05,NE,44,1.0,2.0,69,0.00,,,0.00,Wunderground v.1.15,2013-07-02 02:49:00,
2013-07-01 21:54:00,67.2,56.7,30.05,NE,46,1.0,1.0,69,0.00,,,0.00,Wunderground v.1.15,2013-07-02 02:54:00,
2013-07-01 21:59:00,67.2,56.3,30.06,NE,44,1.0,2.0,68,0.00,,,0.00,Wunderground v.1.15,2013-07-02 02:59:00,
2013-07-01 22:04:00,67.3,56.4,30.06,NE,52,1.0,2.0,68,0.00,,,0.00,Wunderground v.1.15,2013-07-02 03:04:00,
2013-07-01 22:09:00,67.3,56.4,30.06,NE,53,1.0,1.0,68,0.00,,,0.00,Wunderground v.1.15,2013-07-02 03:09:00,
2013-07-01 22:14:00,67.3,56.4,30.06,NE,36,1.0,2.0,68,0.00,,,0.00,Wunderground v.1.15,2013-07-02 03:14:00,
2013-07-01 22:19:00,67.2,56.3,30.06,NE,39,1.0,2.0,68,0.00,,,0.00,Wunderground v.1.15,2013-07-02 03:19:00,
2013-07-01 22:24:00,67.0,56.1,30.06,NE,42,0.0,1.0,68,0.00,,,0.00,Wunderground v.1.15,2013-07-02 03:24:00,
2013-07-01 22:29:00,66.8,55.9,30.06,NE,41,2.0,2.0,68,0.00,,,0.00,Wunderground v.1.15,2013-07-02 03:29:00,
2013-07-01 22:34:00,66.6,56.1,30.06,NE,46,1.0,2.0,69,0.00,,,0.00,Wunderground v.1.15,2013-07-02 03:34:00,
2013-07-01 22:39:00,66.6,55.7,30.06,NE,56,2.0,2.0,68,0.00,,,0.00,Wunderground v.1.15,2013-07-02 03:39:00,
2013-07-01 22:44:00,66.5,56.0,30.07,NE,42,2.0,3.0,69,0.00,,,0.00,Wunderground v.1.15,2013-07-02 03:44:00,
2013-07-01 22:49:00,66.4,56.3,30.07,NE,45,1.0,3.0,70,0.00,,,0.00,Wunderground v.1.15,2013-07-02 03:49:00,
2013-07-01 22:54:00,66.0,56.3,30.07,NE,42,1.0,2.0,71,0.00,,,0.00,Wunderground v.1.15,2013-07-02 03:54:00,
2013-07-01 22:59:00,65.6,56.3,30.06,NE,44,1.0,2.0,72,0.00,,,0.00,Wunderground v.1.15,2013-07-02 03:59:00,
2013-07-01 23:02:00,65.4,56.1,30.06,NE,44,0.0,1.0,72,0.00,,,0.00,Wunderground v.1.15,2013-07-02 04:02:00,
2013-07-01 23:03:00,65.4,56.1,30.06,NE,44,0.0,1.0,72,0.00,,,0.00,Wunderground v.1.15,2013-07-02 04:03:00,
2013-07-01 23:08:00,65.2,55.9,30.06,NE,42,0.0,2.0,72,0.00,,,0.00,Wunderground v.1.15,2013-07-02 04:08:00,
2013-07-01 23:13:00,65.2,55.9,30.06,NE,42,1.0,2.0,72,0.00,,,0.00,Wunderground v.1.15,2013-07-02 04:13:00,
2013-07-01 23:18:00,65.2,55.9,30.06,NE,49,2.0,2.0,72,0.00,,,0.00,Wunderground v.1.15,2013-07-02 04:18:00,
2013-07-01 23:23:00,65.2,55.9,30.07,ENE,59,1.0,2.0,72,0.00,,,0.00,Wunderground v.1.15,2013-07-02 04:23:00,
2013-07-01 23:29:00,65.2,55.9,30.07,NE,44,1.0,2.0,72,0.00,,,0.00,Wunderground v.1.15,2013-07-02 04:29:00,
2013-07-01 23:34:00,65.2,55.9,30.06,NE,46,1.0,2.0,72,0.00,,,0.00,Wunderground v.1.15,2013-07-02 04:34:00,
2013-07-01 23:39:00,65.2,55.9,30.07,NE,47,1.0,2.0,72,0.00,,,0.00,Wunderground v.1.15,2013-07-02 04:39:00,
2013-07-01 23:44:00,65.2,55.9,30.07,NE,39,1.0,2.0,72,0.00,,,0.00,Wunderground v.1.15,2013-07-02 04:44:00,
2013-07-01 23:49:00,65.0,56.1,30.06,NE,39,0.0,2.0,73,0.00,,,0.00,Wunderground v.1.15,2013-07-02 04:49:00,
2013-07-01 23:54:00,64.8,55.9,30.07,NE,39,0.0,1.0,73,0.00,,,0.00,Wunderground v.1.15,2013-07-02 04:54:00,